Regional Weather Roundup
Issued by NWS

Home | Current Version | Previous Version | Graphics & Text | Print | Product List | Glossary On
Versions: 1 2 3 4 5 6 7 8 9 10 11 12 13 14 15 16 17 18 19 20 21 22 23 24 25 26 27 28 29 30 31 32 33 34 35 36 37 38 39 40 41 42 43 44 45 46 47 48 49 50
000
ASUS45 KPSR 200010
RWRAZ

ARIZONA REGIONAL HOURLY WEATHER ROUNDUP
NATIONAL WEATHER SERVICE PHOENIX AZ
500 PM MST TUE AUG 19 2014

NOTE: FAIR INDICATES FEW OR NO CLOUDS BELOW 12,000 FEET WITH NO
SIGNIFICANT WEATHER AND/OR OBSTRUCTIONS TO VISIBILITY.

AZZ001>003-036-200100-
NORTHWEST ARIZONA

CITY           SKY/WX    TMP DP  RH WIND       PRES   REMARKS
BULLHEAD CITY  CLOUDY    75  64  69 NE8       29.74S
KINGMAN        PTSUNNY   75  55  49 SE22      29.93F
6HR MIN TEMP:  66; 6HR MAX TEMP:  85; 6HR PCP: TRACE;

$$

AZZ004>008-015-016-018-200100-
NORTH CENTRAL ARIZONA

CITY           SKY/WX    TMP DP  RH WIND       PRES   REMARKS
GRAND CANYON   PTSUNNY   68  48  48 W8        30.07F
WILLIAMS       PTSUNNY   68  52  56 SW8       30.17S
PRESCOTT       CLOUDY    67  57  70 S6        30.03S
6HR MIN TEMP:  61; 6HR MAX TEMP:  67; 6HR PCP:  0.66;

FLAGSTAFF      CLOUDY    60  55  83 SW13      30.13R
6HR MIN TEMP:  56; 6HR MAX TEMP:  61; 6HR PCP:  0.31;

PAYSON         CLOUDY    68  59  73 VRB5      30.08S
PAGE           PTSUNNY   73  60  63 NE6       29.93F
6HR MIN TEMP:  67; 6HR MAX TEMP:  80; 6HR PCP:  0.20;

$$

AZZ009>014-017-200100-
NORTHEAST ARIZONA

CITY           SKY/WX    TMP DP  RH WIND       PRES   REMARKS
WINSLOW        PTSUNNY   74  57  55 SW12      30.01S
6HR MIN TEMP:  63; 6HR MAX TEMP:  74; 6HR PCP:  0.18;

SAINT JOHNS    LGT RAIN  67  54  63 W14G21    30.07R
6HR MIN TEMP:  63; 6HR MAX TEMP:  78; 6HR PCP:  0.03;

WINDOW ROCK    PTSUNNY   71  49  45 SW15      30.09S
6HR MIN TEMP:  70; 6HR MAX TEMP:  73; 6HR PCP: TRACE;

SHOW LOW       CLOUDY    57  55  94 S14       30.16S
$$

AZZ023-200100-
GREATER PHOENIX AREA

CITY           SKY/WX    TMP DP  RH WIND       PRES   REMARKS
PHOENIX        MOSUNNY   88  65  46 E16       29.77F
6HR MIN TEMP:  74; 6HR MAX TEMP:  91; 6HR PCP:  0.15;

BUCKEYE          N/A     90  66  45 NE16G23   29.75R
GLENDALE       PTSUNNY   90  66  45 NE7       29.79S
LUKE AFB       NOT AVBL
6HR MIN TEMP:  82; 6HR MAX T  65  51 NE9       29.80S
6HR MIN TEMP:  72; 6HR MAX TEMP:  87; 6HR PCP:  0.11;

SCOTTSDALE     MOSUNNY   87  65  47 NE10      29.82S
6HR MIN TEMP:  69; 6HR MAX TEMP:  88; 6HR PCP:  1.54;

MESA-FALCON    PTSUNNY   90  59  35 N13       29.80S
MESA-GATEWAY   PTSUNNY   88  61  40 NE9       29.82F
CHANDLER       PTSUNNY   88  66  48 NE13      29.79F
$$

AZZ027-028-200100-
SOUTHWEST MARICOPA COUNTY AND PINAL COUNTY

CITY           SKY/WX    TMP DP  RH WIND       PRES   REMARKS
CASA GRANDE    SUNNY     91  63  38 E10       29.80S
6HR MIN TEMP:  88; 6HR MAX TEMP:  91;

GILA BEND      PTCLDY    99  52  20 SW15      29.72F
$$

AZZ503-504-507>509-200100-
SOUTHEAST ARIZONA

CITY           SKY/WX    TMP DP  RH WIND       PRES   REMARKS
TUCSON         PTSUNNY   86  61  42 SE3       29.88F
6HR MIN TEMP:  78; 6HR MAX TEMP:  91; 6HR PCP:  0.03;

DAVIS-MONTHAN  SUNNY     84  63  49 N8        29.87S
6HR MIN TEMP:  73; 6HR MAX TEMP:  87; 6HR PCP:  0.29;

RYAN FIELD       N/A     91  57  31 W16       29.86F
NOGALES        CLOUDY    77  62  59 SW12      29.99R
6HR MIN TEMP:  77; 6HR MAX TEMP:  85;

SIERRA VISTA   PTSUNNY   72  64  78 NE14      30.04R THUNDER
                                      6HR PCP:  0.02;

DOUGLAS        RAIN      64  60  87 S8        30.03R
6HR MIN TEMP:  64; 6HR MAX TEMP:  75; 6HR PCP:  0.32;

SAFFORD        LGT RAIN  68  65  90 W10       29.99R
6HR MIN TEMP:  68; 6HR MAX TEMP:  81; 6HR PCP:  0.15;

$$

AZZ020-021-025-026-031-200100-
SOUTHWEST ARIZONA

CITY           SKY/WX    TMP DP  RH WIND       PRES   REMARKS
YUMA           SUNNY    104  52  17 S9        29.65F HX 101
6HR MIN TEMP:  96; 6HR MAX TEMP: 106;

$$

CAZ031-033-041-043-047-048-061-200100-
SOUTHERN CALIFORNIA

CITY           SKY/WX    TMP DP  RH WIND       PRES   REMARKS
DOWNTOWN L.A.  MOSUNNY   75  62  64 W5        29.84S
6HR MIN TEMP:  75; 6HR MAX TEMP:  82;

L.A. AIRPORT   CLOUDY    71  62  73 W15       29.86S
6HR MIN TEMP:  71; 6HR MAX TEMP:  78;

SAN DIEGO      PTSUNNY   72  59  63 W7        29.88S
6HR MIN TEMP:  72; 6HR MAX TEMP:  74;

BURBANK        SUNNY     76  60  57 S13       29.84R
6HR MIN TEMP:  71; 6HR MAX TEMP:  81;

ONTARIO        PTSUNNY   82  60  47 W13G21    29.83S
6HR MIN TEMP:  74; 6HR MAX TEMP:  86;

RIVERSIDE      MOSUNNY   80  61  52 W10G17    29.82S
6HR MIN TEMP:  77; 6HR MAX TEMP:  87;

PALM SPRINGS   SUNNY    101  42  13 NW17G26   29.68S
6HR MIN TEMP:  93; 6HR MAX TEMP: 104;

EL CENTRO NAS  MOSUNNY  106  44  12 W21       29.63S HX 101
6HR MIN TEMP:  97; 6HR MAX TEMP: 109;

IMPERIAL       SUNNY    105  47  14 W15G22    29.61F HX 101
6HR MIN TEMP:  96; 6HR MAX TEMP: 108;

BLYTHE         SUNNY    105  40  11 SW18      29.64F
6HR MIN TEMP:  94; 6HR MAX TEMP: 106;

NEEDLES        PTSUNNY   89  53  29 NE6       29.73F
6HR MIN TEMP:  84; 6HR MAX TEMP: 100;

$$

NVZ020-UTZ003-200100-
SOUTHERN NEVADA-UTAH

CITY           SKY/WX    TMP DP  RH WIND       PRES   REMARKS
LAS VEGAS      MOSUNNY   89  58  34 SE9G18    29.72F
6HR MIN TEMP:  83; 6HR MAX TEMP:  92;

SALT LAKE CITY MOSUNNY   74  54  49 SE13      29.86F
6HR MIN TEMP:  66; 6HR MAX TEMP:  74; 6HR PCP:  0.02;

$$

NMZ009-TXZ055-200100-
NEW MEXICO-WEST TEXAS

CITY           SKY/WX    TMP DP  RH WIND       PRES   REMARKS
ALBUQUERQUE    PTSUNNY   86  41  20 SW13      29.95S
6HR MIN TEMP:  81; 6HR MAX TEMP:  90;

EL PASO        CLOUDY    81  59  47 W22G33    29.90R
6HR MIN TEMP:  81; 6HR MAX TEMP:  93; 6HR PCP: TRACE;

$$


........................KEY........................
SKY/WX - SKY CONDITION/WEATHER
TMP    - TEMPERATURE IN FAHRENHEIT
DP     - DEW POINT IN FAHRENHEIT
RH     - RELATIVE HUMIDITY IN PERCENT
WIND   - DIRECTION AND SPEED IN MILES PER HOUR (MPH)
VRB    - VARIABLE WIND DIRECTION
PRES   - MEAN SEA LEVEL PRESSURE IN INCHES OF MERCURY
         F - FALLING PRESSURE   R - RISING PRESSURE
         S - STEADY PRESSURE
VSB    - VISIBILITY IN MILES
HX     - HEAT INDEX IN FAHRENHEIT
WCI    - WIND CHILL INDEX IN FAHRENHEIT
TC     - TEMPERATURE IN CELSIUS WHICH IS ALSO KNOWN AS
         TEMPERATURE IN CENTIGRADE
AFB    - AIR FORCE BASE
         LUKE AFB IS LUKE AIR FORCE BASE
         DAVIS-MONTHAN IS DAVIS-MONTHAN AIR FORCE BASE
NAS    - NAVAL AIR STATION
         EL CENTRO NAS IS EL CENTRO NAVAL AIR STATION
N/A    - NOT AVAILABLE


USA.gov is the U.S. government's official web portal to all federal, state and local government web resources and services.